COSMOS 2336

Satellite information

Favourite Embed

Satellite Type and Status

PAYLOADIN ORBIT

Key statistics

Satellite COSMOS 2336 at a glance.

Uptime

10487

Days in orbit

Revolutions

≈ 13.7

Per day

Orbit

LEO

Low Earth Orbit

Inclination

82.9

Latest

Satellite identification and parameters

Extended collection of information and parameters for COSMOS 2336.

Object identification

Identified? True

Debris? False

Object name: COSMOS 2336

International designator: 1996-071A

Object number (NORAD): 24677

Object ID (CCSDS): 24677

Country: COMMONWEALTH OF INDEPENDENT STATES (CIS)

Current information (Y/N): Y

RCS size: LARGE

Orbital parameters

Period: 104.982 minutes

Inclination: 82.9389 deg

SMA: 7371.76 km

Apoapsis: 1010.975 km

Periapsis: 976.275 km

RAAN: 56.1506 deg

Eccentricy: 0.00235357

Argument of periapsis: 351.0049 deg

Mean anomaly: 119.2017 deg

Mean motion: 13.71658335 rev/day

Mean motion (dot): 0.00000058 rev/day2

B* drag term: 0.000047224155 1/REarth

Two-line elements (TLE)

Creation date: Sept. 6, 2025, 2:09 a.m.

Reference frame: TEME

Reference center: EARTH

Epoch: Sept. 5, 2025, 9:54 p.m. UTC

TLE line 0: 0 COSMOS 2336

TLE line 1: 1 24677U 96071A 25248.91295425 .00000058 00000-0 47224-4 0 9993

TLE line 2: 2 24677 82.9389 56.1506 0023536 351.0049 119.2017 13.71658335437053

Live tracking on map

Real-time ground track for satellite COSMOS 2336.

In-orbit conjunctions

There are no conjunctions computed for COSMOS 2336, at the moment. Check back to stay up to date, as we update our databases every day.

Go to all conjunctions

Associated space launch

Navigation satellite providing location information for the Tsiklon-B navigation system

COSMOS 2336 was lifted into orbit during the mission ‘Kosmos-3M | Parus 87’, on board a Kosmos-3M space rocket.

The launch took place on Dec. 20, 1996, 6:43 a.m. from 132/1 (132L).

For more information about the launch, click the button.

Launch to space Kosmos-3M | Parus 87
Kosmos-3M | Parus 87

Agency: N/A

Status: Launch Successful

Launch date: Dec. 20, 1996, 6:43 a.m. UTC

Rocket: Kosmos-3M

Launch pad: 132/1 (132L)

Location: Plesetsk Cosmodrome, Russian Federation

...

Latest news about this satellite

There are no fresh news available about this satellite. Check back as we update our databases every day.


Newsletter sign-up

Weekly statistics, charts and insights to help you stay on top of the space industry.